Simultaneous Nadir Overpasses (SNOs) Predictions

Prediction of SNOs between METOP-C and LANDSAT-8 Satellite Orbit:

Table of predicted SNOs for the next 14.0 days since TLE Epoch: 7/10/2021
Index Date (METOP-C) Time (METOP-C) Lat,Lon (METOP-C) SZA (METOP-C ) Date (LANDSAT-8) Time (LANDSAT-8) Lat,Lon (LANDSAT-8) SZA (LANDSAT-8 ) Distance(km) Time Diff (sec)
1 07/11/2021 11:56:41 81.16, 41.32 61.20 07/11/2021 11:57:02 81.16, 41.45 61.22 2.35 21
2 07/11/2021 12:47:21 -81.18,-150.80 118.73 07/11/2021 12:46:28 -81.18,-150.63 118.74 2.87 53
3 07/14/2021 07:31:01 81.17, 108.14 61.65 07/14/2021 07:31:17 81.17, 107.98 61.63 2.66 16
4 07/14/2021 08:21:41 -81.19, -84.00 118.29 07/14/2021 08:20:43 -81.19, -84.07 118.32 1.24 58
5 07/17/2021 03:05:22 81.17, 174.56 62.09 07/17/2021 03:05:32 81.17, 174.49 62.09 1.31 10
6 07/17/2021 03:56:02 -81.19, -17.59 117.84 07/17/2021 03:54:58 -81.19, -17.53 117.86 1.24 64
7 07/19/2021 22:39:42 81.17,-119.03 62.59 07/19/2021 22:39:46 81.18,-119.04 62.59 0.43 4
8 07/19/2021 23:30:23 -81.18, 48.41 117.40 07/19/2021 23:29:13 -81.18, 48.60 117.41 3.29 70
9 07/22/2021 17:23:24 -81.16, 139.52 116.95 07/22/2021 17:24:36 -81.15, 139.40 116.93 2.14 72
10 07/22/2021 18:14:03 81.17, -52.64 63.13 07/22/2021 18:14:01 81.18, -52.60 63.13 0.92 2



Historial Predications of SNOs between METOP-C and LANDSAT-8
